| time (UTC) | temp F | wind direction | speed MPH | gust MPH | rain 1hr in | rain 24hr in | rain mn in | humidity % | barometer mb |
| 20260905144503 | 66 | 301 | 12.0 | 24.0 | 0.00 | 0.05 | 0.00 | 68 | 1001.4 |
| 20260905140004 | 68 | 265 | 14.0 | 25.0 | 0.00 | 0.05 | 0.00 | 65 | 1001.2 |
| 20260905134504 | 65 | 270 | 9.0 | 17.0 | 0.00 | 0.06 | 0.00 | 74 | 1001.0 |
| 20260905131503 | 68 | 283 | 10.0 | 21.0 | 0.00 | 0.06 | 0.00 | 66 | 1000.8 |
| 20260905130004 | 69 | 248 | 16.0 | 28.0 | 0.00 | 0.06 | 0.00 | 63 | 1000.6 |
| 20260905124503 | 69 | 257 | 11.0 | 30.0 | 0.00 | 0.06 | 0.00 | 62 | 1000.6 |
| 20260905123004 | 69 | 265 | 11.0 | 24.0 | 0.00 | 0.06 | 0.00 | 64 | 1000.4 |
| 20260905121504 | 68 | 262 | 14.0 | 26.0 | 0.00 | 0.06 | 0.00 | 65 | 1000.3 |
| 20260905114504 | 68 | 247 | 10.0 | 20.0 | 0.00 | 0.06 | 0.00 | 70 | 1000.4 |
| 20260905113004 | 67 | 257 | 14.0 | 26.0 | 0.00 | 0.06 | 0.00 | 71 | 1000.3 |
| 20260905111503 | 64 | 267 | 7.0 | 20.0 | 0.00 | 0.06 | 0.00 | 78 | 1000.2 |
| 20260905110004 | 65 | 269 | 16.0 | 26.0 | 0.00 | 0.06 | 0.00 | 71 | 1000.0 |
| 20260905103003 | 64 | 269 | 9.0 | 18.0 | 0.00 | 0.06 | 0.00 | 79 | 999.9 |
| 20260905101503 | 64 | 253 | 7.0 | 21.0 | 0.00 | 0.06 | 0.00 | 78 | 999.7 |
| 20260905100004 | 64 | 277 | 12.0 | 26.0 | 0.00 | 0.06 | 0.00 | 80 | 999.7 |
| 20260905094504 | 62 | 256 | 8.0 | 17.0 | 0.00 | 0.06 | 0.00 | 80 | 999.5 |
| 20260905093003 | 64 | 287 | 8.0 | 22.0 | 0.00 | 0.06 | 0.00 | 76 | 999.4 |
| 20260905091503 | 64 | 268 | 9.0 | 21.0 | 0.00 | 0.06 | 0.00 | 80 | 999.4 |
| 20260905090003 | 64 | 273 | 12.0 | 21.0 | 0.00 | 0.06 | 0.00 | 77 | 999.3 |
| 20260905084503 | 63 | 274 | 12.0 | 23.0 | 0.00 | 0.06 | 0.00 | 81 | 999.1 |
| 20260905081503 | 60 | 272 | 9.0 | 17.0 | 0.00 | 0.06 | 0.00 | 89 | 998.9 |
| 20260905074504 | 60 | 270 | 7.0 | 20.0 | 0.00 | 0.06 | 0.00 | 90 | 998.6 |
| 20260905073004 | 58 | 280 | 6.0 | 17.0 | 0.00 | 0.06 | 0.00 | 94 | 998.4 |
| 20260905071504 | 57 | 247 | 7.0 | 13.0 | 0.00 | 0.06 | 0.00 | 95 | 998.0 |
| 20260905070004 | 57 | 242 | 4.0 | 10.0 | 0.00 | 0.06 | 0.00 | 95 | 998.0 |
| 20260905064504 | 56 | 252 | 6.0 | 12.0 | 0.00 | 0.06 | 0.00 | 95 | 998.0 |
| 20260905063004 | 56 | 253 | 2.0 | 13.0 | 0.00 | 0.06 | 0.00 | 95 | 997.9 |
| 20260905061504 | 56 | 246 | 6.0 | 10.0 | 0.00 | 0.06 | 0.00 | 95 | 997.4 |
| 20260905060003 | 56 | 254 | 3.0 | 10.0 | 0.00 | 0.06 | 0.00 | 95 | 997.4 |
| 20260905054503 | 56 | 257 | 4.0 | 12.0 | 0.00 | 0.06 | 0.00 | 96 | 997.4 |
| 20260905051504 | 54 | 259 | 9.0 | 16.0 | 0.00 | 0.06 | 0.00 | 97 | 997.2 |
| 20260905050004 | 54 | 252 | 8.0 | 17.0 | 0.00 | 0.06 | 0.00 | 97 | 997.2 |
| 20260905044503 | 54 | 258 | 6.0 | 13.0 | 0.00 | 0.06 | 0.00 | 97 | 996.7 |
| 20260905043003 | 54 | 246 | 7.0 | 12.0 | 0.00 | 0.06 | 0.00 | 97 | 996.7 |
| 20260905041504 | 54 | 261 | 6.0 | 10.0 | 0.00 | 0.06 | 0.00 | 97 | 996.6 |
| 20260905040003 | 54 | 257 | 5.0 | 10.0 | 0.00 | 0.06 | 0.00 | 97 | 996.5 |
| 20260905034504 | 54 | 258 | 5.0 | 9.0 | 0.00 | 0.06 | 0.00 | 97 | 996.0 |
| 20260905033004 | 54 | 253 | 5.0 | 8.0 | 0.00 | 0.06 | 0.00 | 97 | 996.0 |
| 20260905031504 | 54 | 250 | 5.0 | 9.0 | 0.00 | 0.06 | 0.00 | 97 | 996.0 |
| 20260905030004 | 55 | 251 | 5.0 | 9.0 | 0.00 | 0.06 | 0.00 | 97 | 995.9 |
| 20260905023003 | 55 | 248 | 4.0 | 8.0 | 0.00 | 0.09 | 0.00 | 97 | 995.7 |
| 20260905020004 | 55 | 241 | 5.0 | 7.0 | 0.00 | 0.09 | 0.00 | 97 | 995.4 |
| 20260905014504 | 55 | 239 | 5.0 | 9.0 | 0.00 | 0.09 | 0.00 | 97 | 995.3 |
| 20260905013003 | 55 | 241 | 6.0 | 10.0 | 0.00 | 0.09 | 0.00 | 97 | 995.3 |
| 20260905010004 | 54 | 228 | 6.0 | 10.0 | 0.00 | 0.09 | 0.00 | 97 | 995.3 |
| 20260905004504 | 54 | 236 | 6.0 | 12.0 | 0.00 | 0.09 | 0.00 | 97 | 995.3 |
| 20260905003004 | 54 | 244 | 8.0 | 12.0 | 0.00 | 0.09 | 0.00 | 97 | 995.3 |
| 20260905001504 | 54 | 240 | 7.0 | 12.0 | 0.00 | 0.09 | 0.00 | 97 | 995.3 |
| 20260904234504 | 53 | 239 | 5.0 | 8.0 | 0.00 | 0.09 | 0.00 | 97 | 995.2 |
| 20260904233004 | 53 | 233 | 6.0 | 8.0 | 0.00 | 0.09 | 0.00 | 97 | 995.2 |
| 20260904231504 | 53 | 242 | 3.0 | 7.0 | 0.00 | 0.09 | 0.00 | 97 | 995.1 |
| 20260904230003 | 53 | 264 | 3.0 | 6.0 | 0.00 | 0.09 | 0.00 | 97 | 995.0 |
| 20260904224503 | 53 | 246 | 3.0 | 8.0 | 0.00 | 0.09 | 0.00 | 97 | 995.0 |
| 20260904223003 | 52 | 249 | 4.0 | 8.0 | 0.00 | 0.09 | 0.00 | 97 | 995.0 |
| 20260904221503 | 52 | 240 | 4.0 | 8.0 | 0.00 | 0.09 | 0.00 | 97 | 995.1 |
| 20260904220004 | 52 | 234 | 4.0 | 6.0 | 0.01 | 0.09 | 0.00 | 97 | 995.0 |
| 20260904214503 | 52 | 230 | 3.0 | 7.0 | 0.01 | 0.09 | 0.09 | 96 | 995.0 |
| 20260904213004 | 53 | 243 | 5.0 | 6.0 | 0.01 | 0.09 | 0.09 | 96 | 994.9 |
| 20260904211504 | 54 | 260 | 4.0 | 6.0 | 0.01 | 0.10 | 0.09 | 96 | 994.9 |
| 20260904210004 | 54 | 277 | 3.0 | 8.0 | 0.00 | 0.09 | 0.08 | 96 | 994.9 |
| 20260904204504 | 55 | 265 | 3.0 | 5.0 | 0.00 | 0.11 | 0.08 | 96 | 994.8 |
| 20260904203004 | 56 | 242 | 2.0 | 5.0 | 0.00 | 0.11 | 0.08 | 97 | 995.1 |
| 20260904200004 | 55 | 223 | 5.0 | 7.0 | 0.00 | 0.11 | 0.08 | 96 | 994.9 |
| 20260904194504 | 57 | 284 | 0.0 | 0.0 | 0.00 | 0.11 | 0.08 | 96 | 994.9 |
| 20260904193005 | 57 | 284 | 0.0 | 0.0 | 0.01 | 0.11 | 0.08 | 96 | 995.2 |
| 20260904191504 | 57 | 284 | 0.0 | 0.0 | 0.01 | 0.11 | 0.08 | 97 | 995.3 |
| 20260904190003 | 58 | 284 | 0.0 | 0.0 | 0.01 | 0.12 | 0.08 | 96 | 995.3 |
| 20260904183003 | 57 | 209 | 0.0 | 0.0 | 0.00 | 0.11 | 0.07 | 96 | 995.3 |
| 20260904181503 | 57 | 209 | 0.0 | 0.0 | 0.00 | 0.11 | 0.07 | 96 | 995.5 |
| 20260904180005 | 58 | 209 | 0.0 | 0.0 | 0.00 | 0.12 | 0.07 | 96 | 995.5 |
| 20260904174504 | 57 | 209 | 0.0 | 0.0 | 0.01 | 0.12 | 0.07 | 96 | 995.5 |
| 20260904173004 | 57 | 209 | 0.0 | 3.0 | 0.02 | 0.12 | 0.07 | 96 | 995.4 |
| 20260904171503 | 57 | 188 | 0.0 | 2.0 | 0.02 | 0.12 | 0.07 | 96 | 995.4 |
| 20260904170004 | 58 | 187 | 2.0 | 5.0 | 0.03 | 0.12 | 0.07 | 95 | 995.6 |
| 20260904164504 | 58 | 204 | 3.0 | 7.0 | 0.02 | 0.11 | 0.06 | 95 | 995.8 |
| 20260904163003 | 58 | 206 | 3.0 | 7.0 | 0.01 | 0.10 | 0.05 | 95 | 995.9 |
| 20260904161503 | 58 | 198 | 2.0 | 6.0 | 0.01 | 0.10 | 0.05 | 94 | 995.9 |
| 20260904160004 | 58 | 193 | 3.0 | 7.0 | 0.00 | 0.09 | 0.04 | 94 | 996.0 |
| 20260904154504 | 59 | 204 | 3.0 | 7.0 | 0.00 | 0.09 | 0.04 | 93 | 996.2 |
| 20260904151504 | 59 | 192 | 3.0 | 8.0 | 0.00 | 0.10 | 0.04 | 92 | 996.7 |